18-09-2023, 00:00:05,    249,    0.0,   14.5,   0.00,   0.00, 1001.3,    0.3, -999.0
18-09-2023, 00:00:15,    250,    0.0,   14.5,   0.00,   0.00, 1001.3,    0.2, -999.0
18-09-2023, 00:00:25,    249,    0.0,   14.4,   0.00,   0.00, 1001.3,    0.2, -999.0
18-09-2023, 00:00:35,    250,    0.0,   14.4,   0.00,   0.00, 1001.3,    0.3, -999.0
18-09-2023, 00:00:45,    250,    0.0,   14.5,   0.00,   0.01, 1001.3,    0.2, -999.0
18-09-2023, 00:00:55,    249,    0.0,   14.5,   0.00,   0.00, 1001.3,    0.0, -999.0
18-09-2023, 00:01:05,    249,    0.0,   14.4,   0.00,   0.00, 1001.3,    0.2, -999.0
18-09-2023, 00:01:15,    250,    0.0,   14.4,   0.00,   0.00, 1001.3,    0.2, -999.0
18-09-2023, 00:01:24,    249,    0.0,   14.6,   0.00,   0.01, 1001.3,    0.2, -999.0
18-09-2023, 00:01:35,    250,    0.0,   14.6,   0.00,   0.00, 1001.3,    0.3, -999.0
18-09-2023, 00:01:45,    249,    0.0,   14.5,   0.00,   0.00, 1001.3,    0.2, -999.0
18-09-2023, 00:01:54,    250,    0.0,   14.5,   0.00,   0.00, 1001.3,    0.2, -999.0
18-09-2023, 00:02:04,    250,    0.0,   14.6,   0.00,   0.00, 1001.3,    0.2, -999.0
18-09-2023, 00:02:15,    250,    0.0,   14.6,   0.00,   0.00, 1001.4,    0.2, -999.0
18-09-2023, 00:02:25,    250,    0.0,   14.6,   0.00,   0.01, 1001.4,    0.2, -999.0
18-09-2023, 00:02:34,    249,    0.0,   14.5,   0.00,   0.00, 1001.4,    0.1, -999.0
18-09-2023, 00:02:44,    250,    0.0,   14.4,   0.00,   0.00, 1001.4,    0.1, -999.0
18-09-2023, 00:02:55,    250,    0.0,   14.6,   0.00,   0.00, 1001.4,    0.2, -999.0
18-09-2023, 00:03:04,    249,    0.0,   14.7,   0.00,   0.00, 1001.4,    0.2, -999.0
18-09-2023, 00:03:14,    250,    0.0,   14.6,   0.00,   0.00, 1001.4,    0.2, -999.0
18-09-2023, 00:03:24,    249,    0.0,   14.6,   0.00,   0.00, 1001.4,    0.2, -999.0
18-09-2023, 00:03:34,    249,    0.0,   14.6,   0.00,   0.00, 1001.4,    0.1, -999.0
18-09-2023, 00:03:44,    249,    0.0,   14.6,   0.00,   0.01, 1001.4,    0.0, -999.0
18-09-2023, 00:03:54,    250,    0.0,   14.6,   0.00,   0.00, 1001.4,    0.3, -999.0
18-09-2023, 00:04:04,    250,    0.0,   14.6,   0.00,   0.00, 1001.4,    0.1, -999.0
18-09-2023, 00:04:14,    249,    0.0,   14.6,   0.00,   0.01, 1001.4,    0.4, -999.0
18-09-2023, 00:04:24,    249,    0.0,   14.6,   0.00,   0.00, 1001.4,    0.2, -999.0
18-09-2023, 00:04:34,    250,    0.0,   14.7,   0.00,   0.00, 1001.4,    0.3, -999.0
18-09-2023, 00:04:44,    252,    0.0,   14.7,   0.00,   0.01, 1001.4,    0.3, -999.0
18-09-2023, 00:04:54,    249,    0.0,   14.7,   0.00,   0.00, 1001.4,    0.2, -999.0
18-09-2023, 00:05:04,    249,    0.0,   14.7,   0.00,   0.00, 1001.4,    0.2, -999.0
18-09-2023, 00:05:14,    249,    0.0,   14.7,   0.00,   0.01, 1001.4,    0.3, -999.0
18-09-2023, 00:05:24,    250,    0.0,   14.7,   0.00,   0.00, 1001.4,    0.2, -999.0
18-09-2023, 00:05:34,    248,    0.0,   14.7,   0.00,   0.01, 1001.4,    0.1, -999.0
18-09-2023, 00:05:44,    250,    0.0,   14.7,   0.00,   0.00, 1001.4,    0.1, -999.0
18-09-2023, 00:05:54,    250,    0.0,   14.7,   0.00,   0.01, 1001.4,    0.1, -999.0
18-09-2023, 00:06:04,    250,    0.0,   14.7,   0.00,   0.00, 1001.3,    0.3, -999.0
18-09-2023, 00:06:14,    250,    0.0,   14.7,   0.00,   0.01, 1001.3,    0.1, -999.0
18-09-2023, 00:06:24,    249,    0.0,   14.8,   0.00,   0.00, 1001.3,    0.2, -999.0
18-09-2023, 00:06:34,    247,    0.0,   14.7,   0.00,   0.01, 1001.3,    0.3, -999.0
18-09-2023, 00:06:44,    250,    0.0,   14.7,   0.00,   0.00, 1001.3,    0.4, -999.0
18-09-2023, 00:06:54,    250,    0.0,   14.7,   0.00,   0.00, 1001.3,    0.3, -999.0
18-09-2023, 00:07:04,    250,    0.0,   14.8,   0.00,   0.01, 1001.3,    0.2, -999.0
18-09-2023, 00:07:13,    250,    0.0,   14.7,   0.00,   0.00, 1001.3,    0.2, -999.0
18-09-2023, 00:07:24,    249,    0.0,   14.8,   0.00,   0.01, 1001.3,    0.1, -999.0
18-09-2023, 00:07:34,    250,    0.0,   14.6,   0.00,   0.00, 1001.2,    0.1, -999.0
18-09-2023, 00:07:43,    250,    0.0,   14.6,   0.00,   0.01, 1001.2,    0.4, -999.0
18-09-2023, 00:07:53,    350,    0.0,   14.6,   0.00,   0.01, 1001.2,    0.3, -999.0
18-09-2023, 00:08:04,    350,    0.0,   14.5,   0.00,   0.00, 1001.2,    0.2, -999.0
18-09-2023, 00:08:14,    350,    0.0,   14.6,   0.00,   0.01, 1001.2,    0.1, -999.0
18-09-2023, 00:08:23,    351,    0.0,   14.6,   0.00,   0.00, 1001.2,    0.3, -999.0
18-09-2023, 00:08:33,    350,    0.0,   14.5,   0.00,   0.00, 1001.2,    0.1, -999.0
18-09-2023, 00:08:44,    350,    0.0,   14.5,   0.00,   0.01, 1001.2,    0.1, -999.0
18-09-2023, 00:08:53,    350,    0.0,   14.6,   0.00,   0.00, 1001.2,    0.2, -999.0
18-09-2023, 00:09:03,    350,    0.0,   14.5,   0.00,   0.01, 1001.2,    0.1, -999.0
18-09-2023, 00:09:14,    351,    0.0,   14.6,   0.00,   0.00, 1001.2,    0.3, -999.0
18-09-2023, 00:09:23,    350,    0.0,   14.7,   0.00,   0.01, 1001.2,    0.1, -999.0
18-09-2023, 00:09:33,    350,    0.0,   14.7,   0.00,   0.00, 1001.2,    0.3, -999.0
18-09-2023, 00:09:43,    350,    0.0,   14.7,   0.00,   0.00, 1001.2,    0.3, -999.0
18-09-2023, 00:09:53,    350,    0.0,   14.5,   0.00,   0.01, 1001.2,    0.3, -999.0
18-09-2023, 00:10:03,    351,    0.0,   14.6,   0.00,   0.00, 1001.2,    0.1, -999.0
18-09-2023, 00:10:13,    351,    0.0,   14.7,   0.00,   0.01, 1001.2,    0.3, -999.0
18-09-2023, 00:10:23,    350,    0.0,   14.7,   0.00,   0.01, 1001.2,    0.3, -999.0
18-09-2023, 00:10:33,    350,    0.0,   14.6,   0.00,   0.00, 1001.2,    0.1, -999.0
18-09-2023, 00:10:43,    351,    0.0,   14.6,   0.00,   0.01, 1001.2,    0.2, -999.0
18-09-2023, 00:10:53,    350,    0.0,   14.6,   0.00,   0.01, 1001.2,    0.1, -999.0
18-09-2023, 00:11:03,    350,    0.0,   14.6,   0.00,   0.02, 1001.2,    0.3, -999.0
18-09-2023, 00:11:13,    350,    0.0,   14.7,   0.00,   0.02, 1001.2,    0.3, -999.0
18-09-2023, 00:11:23,    350,    0.0,   14.7,   0.00,   0.02, 1001.2,    0.6, -999.0
18-09-2023, 00:11:33,    347,    0.0,   14.7,   0.00,   0.02, 1001.2,    0.4, -999.0
18-09-2023, 00:11:43,    350,    0.0,   14.7,   0.00,   0.02, 1001.2,    0.0, -999.0
18-09-2023, 00:11:53,    350,    0.0,   14.8,   0.00,   0.02, 1001.2,    0.2, -999.0
18-09-2023, 00:12:03,    350,    0.0,   14.5,   0.00,   0.03, 1001.2,    0.6, -999.0
18-09-2023, 00:12:13,    350,    0.0,   14.7,   0.00,   0.02, 1001.2,    0.3, -999.0
18-09-2023, 00:12:23,    350,    0.0,   14.7,   0.00,   0.04, 1001.2,    0.0, -999.0
18-09-2023, 00:12:33,    350,    0.0,   14.7,   0.00,   0.04, 1001.2,    0.0, -999.0
18-09-2023, 00:12:43,    350,    0.0,   14.7,   0.00,   0.03, 1001.2,    0.7, -999.0
18-09-2023, 00:12:53,    351,    0.0,   14.7,   0.00,   0.05, 1001.2,    0.0, -999.0
18-09-2023, 00:13:03,    351,    0.0,   14.7,   0.00,   0.03, 1001.2,    0.5, -999.0
18-09-2023, 00:13:13,    350,    0.0,   14.6,   0.00,   0.04, 1001.2,    0.1, -999.0
18-09-2023, 00:13:23,    352,    0.0,   14.7,   0.00,   0.04, 1001.2,    0.1, -999.0
18-09-2023, 00:13:33,    354,    0.0,   14.7,   0.00,   0.04, 1001.2,    0.1, -999.0
18-09-2023, 00:13:42,    352,    0.0,   14.7,   0.00,   0.04, 1001.2,    0.2, -999.0
18-09-2023, 00:13:53,    352,    0.0,   14.7,   0.00,   0.05, 1001.2,    0.3, -999.0
18-09-2023, 00:14:03,    352,    0.0,   14.7,   0.00,   0.04, 1001.2,    0.2, -999.0
18-09-2023, 00:14:12,    352,    0.0,   14.7,   0.00,   0.03, 1001.2,    0.2, -999.0
18-09-2023, 00:14:22,    353,    0.0,   14.7,   0.00,   0.03, 1001.2,    0.1, -999.0
18-09-2023, 00:14:33,    352,    0.0,   14.7,   0.00,   0.04, 1001.2,    0.1, -999.0
18-09-2023, 00:14:43,    352,    0.0,   14.7,   0.00,   0.08, 1001.2,    0.2, -999.0
18-09-2023, 00:14:52,    352,    0.0,   14.7,   0.00,   0.11, 1001.2,    0.1, -999.0
18-09-2023, 00:15:02,    352,    0.0,   14.7,   0.00,   0.08, 1001.2,    0.3, -999.0
18-09-2023, 00:15:13,    353,    0.0,   14.7,   0.00,   0.10, 1001.2,    0.2, -999.0
18-09-2023, 00:15:22,    353,    0.0,   14.7,   0.00,   0.08, 1001.2,    0.1, -999.0
18-09-2023, 00:15:32,    353,    0.0,   14.7,   0.00,   0.10, 1001.2,    0.2, -999.0
18-09-2023, 00:15:42,    354,    0.0,   14.7,   0.00,   0.10, 1001.2,    0.1, -999.0
18-09-2023, 00:15:52,    353,    0.0,   14.7,   0.00,   0.07, 1001.2,    0.2, -999.0
18-09-2023, 00:16:02,    353,    0.0,   14.8,   0.00,   0.05, 1001.2,    0.2, -999.0
18-09-2023, 00:16:12,    353,    0.0,   14.7,   0.00,   0.05, 1001.2,    0.2, -999.0
18-09-2023, 00:16:22,    353,    0.0,   14.5,   0.00,   0.07, 1001.2,    0.2, -999.0
18-09-2023, 00:16:32,    353,    0.0,   14.6,   0.00,   0.07, 1001.2,    0.2, -999.0
18-09-2023, 00:16:42,    353,    0.0,   14.7,   0.00,   0.04, 1001.2,    0.2, -999.0
18-09-2023, 00:16:52,    353,    0.0,   14.7,   0.00,   0.02, 1001.2,    0.2, -999.0
18-09-2023, 00:17:02,      0,    0.0,   14.7,   0.00,   0.03, 1001.3,    0.2, -999.0
18-09-2023, 00:17:12,    119,    0.1,   14.7,   0.00,   0.04, 1001.3,    0.3, -999.0
18-09-2023, 00:17:22,    119,    0.1,   14.7,   0.00,   0.03, 1001.4,    0.3, -999.0
18-09-2023, 00:17:32,    119,    0.4,   14.8,   0.00,   0.06, 1001.4,    0.2, -999.0
18-09-2023, 00:17:42,    119,    0.0,   14.6,   0.00,   0.04, 1001.3,    0.3, -999.0
18-09-2023, 00:17:52,    119,    0.0,   14.7,   0.00,   0.04, 1001.4,    0.3, -999.0
18-09-2023, 00:18:02,    119,    0.0,   14.7,   0.00,   0.04, 1001.4,    0.4, -999.0
18-09-2023, 00:18:12,    119,    0.0,   14.7,   0.00,   0.03, 1001.4,    0.2, -999.0
18-09-2023, 00:18:22,    122,    0.0,   14.7,   0.00,   0.03, 1001.4,    0.2, -999.0
18-09-2023, 00:18:32,    161,    0.0,   14.7,   0.00,   0.02, 1001.4,    0.2, -999.0
18-09-2023, 00:18:42,    161,    0.0,   14.7,   0.00,   0.01, 1001.3,    0.2, -999.0
18-09-2023, 00:18:52,    161,    0.0,   14.7,   0.00,   0.02, 1001.4,    0.3, -999.0
18-09-2023, 00:19:02,    161,    0.0,   14.7,   0.00,   0.01, 1001.4,    0.3, -999.0
18-09-2023, 00:19:12,    159,    0.5,   14.8,   0.00,   0.01, 1001.5,    0.3, -999.0
18-09-2023, 00:19:22,    159,    0.4,   14.8,   0.00,   0.01, 1001.5,    0.2, -999.0
18-09-2023, 00:19:32,    157,    0.8,   14.8,   0.00,   0.01, 1001.5,    0.4, -999.0
18-09-2023, 00:19:41,    157,    0.3,   14.9,   0.00,   0.02, 1001.5,    0.3, -999.0
18-09-2023, 00:19:52,    157,    0.0,   14.8,   0.00,   0.02, 1001.4,    0.3, -999.0
18-09-2023, 00:20:02,    157,    0.0,   14.8,   0.00,   0.03, 1001.4,    0.2, -999.0
18-09-2023, 00:20:11,    157,    0.0,   14.8,   0.00,   0.03, 1001.4,    0.3, -999.0
18-09-2023, 00:20:21,    158,    0.0,   14.8,   0.00,   0.04, 1001.4,    0.1, -999.0
18-09-2023, 00:20:32,    140,    0.7,   14.9,   0.00,   0.05, 1001.6,    0.2, -999.0
18-09-2023, 00:20:42,    158,    0.8,   14.9,   0.00,   0.04, 1001.5,    0.4, -999.0
18-09-2023, 00:20:51,    150,    1.6,   15.0,   0.00,   0.05, 1001.5,    0.4, -999.0
18-09-2023, 00:21:01,    168,    1.8,   14.9,   0.00,   0.06, 1001.6,    0.3, -999.0
18-09-2023, 00:21:12,    163,    1.6,   15.0,   0.00,   0.07, 1001.6,    0.4, -999.0
18-09-2023, 00:21:21,    165,    0.6,   15.0,   0.00,   0.10, 1001.6,    0.5, -999.0
18-09-2023, 00:21:31,    196,    2.0,   14.9,   0.00,   0.10, 1001.6,    0.3, -999.0
18-09-2023, 00:21:41,    143,    2.3,   14.9,   0.00,   0.08, 1001.6,    0.2, -999.0
18-09-2023, 00:21:51,    165,    1.3,   15.0,   0.00,   0.13, 1001.6,    0.4, -999.0
18-09-2023, 00:22:01,    162,    1.6,   15.0,   0.00,   0.11, 1001.6,    0.3, -999.0
18-09-2023, 00:22:11,    160,    0.5,   15.0,   0.00,   0.13, 1001.6,    0.2, -999.0
18-09-2023, 00:22:21,    156,    2.2,   15.0,   0.00,   0.19, 1001.6,    0.3, -999.0
18-09-2023, 00:22:31,    136,    2.9,   14.9,   0.00,   0.22, 1001.6,    0.3, -999.0
18-09-2023, 00:22:41,    149,    3.4,   15.0,   0.00,   0.11, 1001.7,    0.2, -999.0
18-09-2023, 00:22:51,    154,    1.7,   15.0,   0.00,   0.12, 1001.7,    0.2, -999.0
18-09-2023, 00:23:01,    165,    1.7,   15.1,   0.00,   0.24, 1001.7,    0.3, -999.0
18-09-2023, 00:23:11,    144,    1.3,   15.0,   0.00,   0.21, 1001.7,    0.4, -999.0
18-09-2023, 00:23:21,    156,    1.4,   15.0,   0.00,   0.20, 1001.8,    0.4, -999.0
18-09-2023, 00:23:31,    157,    0.7,   15.0,   0.00,   0.18, 1001.7,    0.1, -999.0
18-09-2023, 00:23:41,    166,    0.9,   14.9,   0.00,   0.20, 1001.8,    0.2, -999.0
18-09-2023, 00:23:51,    182,    1.1,   15.0,   0.00,   0.21, 1001.8,    0.4, -999.0
18-09-2023, 00:24:01,    155,    0.5,   14.9,   0.00,   0.23, 1001.7,    0.3, -999.0
18-09-2023, 00:24:11,    154,    1.2,   15.0,   0.00,   0.21, 1001.8,    0.4, -999.0
18-09-2023, 00:24:21,    115,    1.1,   14.9,   0.00,   0.19, 1001.8,    0.3, -999.0
18-09-2023, 00:24:31,    229,    0.5,   14.9,   0.00,   0.15, 1001.7,    0.2, -999.0
18-09-2023, 00:24:41,    221,    0.1,   14.8,   0.00,   0.16, 1001.7,    0.2, -999.0
18-09-2023, 00:24:51,    172,    0.3,   14.8,   0.00,   0.10, 1001.7,    0.2, -999.0
18-09-2023, 00:25:01,    171,    0.4,   14.8,   0.00,   0.11, 1001.8,    0.4, -999.0
18-09-2023, 00:25:11,    172,    0.4,   14.9,   0.00,   0.07, 1001.8,    0.3, -999.0
18-09-2023, 00:25:21,    158,    3.3,   14.9,   0.00,   0.09, 1001.8,    0.2, -999.0
18-09-2023, 00:25:31,    122,    3.5,   14.9,   0.00,   0.07, 1001.8,    0.3, -999.0
18-09-2023, 00:25:41,    150,    2.6,   14.9,   0.00,   0.05, 1001.8,    0.2, -999.0
18-09-2023, 00:25:51,    151,    2.5,   14.9,   0.00,   0.06, 1001.8,    0.4, -999.0
18-09-2023, 00:26:00,    158,    1.5,   15.0,   0.00,   0.07, 1001.9,    0.2, -999.0
18-09-2023, 00:26:11,    165,    2.1,   15.0,   0.00,   0.07, 1001.9,    0.2, -999.0
18-09-2023, 00:26:21,    157,    1.4,   15.0,   0.00,   0.08, 1001.9,    0.3, -999.0
18-09-2023, 00:26:30,    159,    0.5,   15.0,   0.00,   0.05, 1001.9,    0.4, -999.0
18-09-2023, 00:26:40,    160,    0.0,   14.9,   0.00,   0.06, 1001.8,    0.2, -999.0
18-09-2023, 00:26:51,    159,    0.0,   14.9,   0.00,   0.07, 1001.8,    0.4, -999.0
18-09-2023, 00:27:00,    166,    0.0,   14.9,   0.00,   0.08, 1001.8,    0.2, -999.0
18-09-2023, 00:27:10,    170,    1.0,   14.9,   0.00,   0.11, 1001.9,    0.1, -999.0
18-09-2023, 00:27:20,    142,    1.5,   14.8,   0.00,   0.10, 1001.9,    0.5, -999.0
18-09-2023, 00:27:31,    154,    1.0,   14.7,   0.00,   0.09, 1001.9,    0.0, -999.0
18-09-2023, 00:27:40,    182,    0.7,   14.6,   0.00,   0.08, 1001.9,    0.2, -999.0
18-09-2023, 00:27:50,    225,    1.6,   14.6,   0.00,   0.10, 1002.0,    0.3, -999.0
18-09-2023, 00:28:01,    160,    0.9,   14.6,   0.00,   0.09, 1002.0,    0.4, -999.0
18-09-2023, 00:28:10,    168,    0.2,   14.5,   0.00,   0.08, 1001.9,    0.2, -999.0
18-09-2023, 00:28:20,    213,    0.7,   14.5,   0.00,   0.09, 1001.9,    0.3, -999.0
18-09-2023, 00:28:30,    224,    0.3,   14.5,   0.00,   0.09, 1001.9,    0.3, -999.0
18-09-2023, 00:28:40,    223,    0.0,   14.4,   0.00,   0.09, 1001.8,    0.0, -999.0
18-09-2023, 00:28:50,    223,    0.0,   14.5,   0.00,   0.10, 1001.8,    0.0, -999.0
18-09-2023, 00:29:00,    190,    1.2,   14.5,   0.00,   0.11, 1001.9,    0.2, -999.0
18-09-2023, 00:29:10,    178,    0.9,   14.5,   0.00,   0.08, 1001.9,    0.2, -999.0
18-09-2023, 00:29:20,    190,    0.0,   14.3,   0.00,   0.08, 1001.8,    0.1, -999.0
18-09-2023, 00:29:30,    198,    0.9,   14.3,   0.00,   0.09, 1001.9,    0.3, -999.0
18-09-2023, 00:29:40,    175,    0.3,   14.4,   0.00,   0.07, 1001.9,    0.1, -999.0
18-09-2023, 00:29:50,    199,    0.0,   14.3,   0.00,   0.07, 1001.9,    0.1, -999.0
18-09-2023, 00:30:00,    196,    0.0,   14.2,   0.00,   0.09, 1001.8,    0.1, -999.0
18-09-2023, 00:30:10,    196,    0.0,   14.2,   0.00,   0.07, 1001.8,    0.2, -999.0
18-09-2023, 00:30:20,    196,    0.0,   14.1,   0.00,   0.09, 1001.8,    0.2, -999.0
18-09-2023, 00:30:30,    196,    0.0,   14.2,   0.00,   0.06, 1001.8,    0.2, -999.0
18-09-2023, 00:30:40,    198,    0.0,   14.3,   0.00,   0.07, 1001.8,    0.3, -999.0
18-09-2023, 00:30:50,    200,    0.0,   14.3,   0.00,   0.07, 1001.8,    0.2, -999.0
18-09-2023, 00:31:00,    198,    0.0,   14.3,   0.00,   0.07, 1001.9,    0.2, -999.0
18-09-2023, 00:31:10,    198,    0.0,   14.2,   0.00,   0.07, 1001.8,    0.2, -999.0
18-09-2023, 00:31:20,    198,    0.0,   14.3,   0.00,   0.07, 1001.9,    0.2, -999.0
18-09-2023, 00:31:30,    198,    0.0,   14.3,   0.00,   0.03, 1001.9,    0.4, -999.0
18-09-2023, 00:31:40,    198,    0.0,   14.3,   0.00,   0.04, 1001.9,    0.2, -999.0
18-09-2023, 00:31:49,    175,    0.3,   14.3,   0.00,   0.04, 1001.9,    0.1, -999.0
18-09-2023, 00:32:00,    178,    0.0,   14.3,   0.00,   0.04, 1001.9,    0.3, -999.0
18-09-2023, 00:32:10,    177,    0.0,   14.2,   0.00,   0.03, 1001.9,    0.1, -999.0
18-09-2023, 00:32:19,    177,    0.4,   14.3,   0.00,   0.04, 1002.0,    0.3, -999.0
18-09-2023, 00:32:30,    178,    0.0,   14.3,   0.00,   0.02, 1001.9,    0.3, -999.0
18-09-2023, 00:32:40,    177,    0.0,   14.3,   0.00,   0.02, 1001.9,    0.1, -999.0
18-09-2023, 00:32:49,    178,    0.2,   14.4,   0.00,   0.02, 1001.9,    0.2, -999.0
18-09-2023, 00:32:59,    177,    0.0,   14.3,   0.00,   0.02, 1001.9,    0.1, -999.0
18-09-2023, 00:33:10,    178,    0.1,   14.3,   0.00,   0.03, 1001.9,    0.2, -999.0
18-09-2023, 00:33:19,    177,    0.0,   14.3,   0.00,   0.04, 1001.8,    0.4, -999.0
18-09-2023, 00:33:29,    178,    0.1,   14.4,   0.00,   0.05, 1001.9,    0.2, -999.0
18-09-2023, 00:33:39,    177,    0.0,   14.3,   0.00,   0.03, 1001.8,    0.2, -999.0
18-09-2023, 00:33:50,    178,    0.1,   14.3,   0.00,   0.04, 1001.8,    0.2, -999.0
18-09-2023, 00:33:59,    177,    0.0,   14.4,   0.00,   0.02, 1001.8,    0.2, -999.0
18-09-2023, 00:34:09,    179,    0.0,   14.3,   0.00,   0.02, 1001.8,    0.4, -999.0
18-09-2023, 00:34:19,    174,    0.0,   14.3,   0.00,   0.01, 1001.9,    0.3, -999.0
18-09-2023, 00:34:29,    166,    0.1,   14.5,   0.00,   0.02, 1001.8,    0.3, -999.0
18-09-2023, 00:34:39,    166,    0.0,   14.5,   0.00,   0.01, 1001.7,    0.2, -999.0
18-09-2023, 00:34:49,    166,    0.0,   14.5,   0.00,   0.02, 1001.7,    0.3, -999.0
18-09-2023, 00:34:59,    165,    0.0,   14.4,   0.00,   0.01, 1001.7,    0.1, -999.0
18-09-2023, 00:35:09,    166,    0.0,   14.4,   0.00,   0.02, 1001.7,    0.2, -999.0
18-09-2023, 00:35:19,    166,    0.0,   14.4,   0.00,   0.01, 1001.6,    0.3, -999.0
18-09-2023, 00:35:29,    165,    0.0,   14.4,   0.00,   0.02, 1001.6,    0.3, -999.0
18-09-2023, 00:35:39,    166,    0.0,   14.4,   0.00,   0.02, 1001.6,    0.2, -999.0
18-09-2023, 00:35:49,    166,    0.0,   14.5,   0.00,   0.02, 1001.6,    0.3, -999.0
18-09-2023, 00:35:59,    166,    0.0,   14.4,   0.00,   0.02, 1001.6,    0.1, -999.0
18-09-2023, 00:36:09,    166,    0.0,   14.4,   0.00,   0.02, 1001.6,    0.3, -999.0
18-09-2023, 00:36:19,    166,    0.0,   14.4,   0.00,   0.02, 1001.6,    0.2, -999.0
18-09-2023, 00:36:29,    166,    0.0,   14.5,   0.00,   0.01, 1001.6,    0.2, -999.0
18-09-2023, 00:36:39,    166,    0.0,   14.5,   0.00,   0.01, 1001.6,    0.1, -999.0
18-09-2023, 00:36:49,    166,    0.0,   14.5,   0.00,   0.01, 1001.6,    0.3, -999.0
18-09-2023, 00:36:59,    166,    0.0,   14.5,   0.00,   0.02, 1001.6,    0.2, -999.0
18-09-2023, 00:37:09,    166,    0.0,   14.5,   0.00,   0.02, 1001.6,    0.3, -999.0
18-09-2023, 00:37:19,    166,    0.0,   14.6,   0.00,   0.02, 1001.6,    0.1, -999.0
18-09-2023, 00:37:29,    166,    0.0,   14.6,   0.00,   0.02, 1001.6,    0.3, -999.0
18-09-2023, 00:37:39,    165,    0.0,   14.5,   0.00,   0.01, 1001.6,    0.2, -999.0
18-09-2023, 00:37:49,    166,    0.0,   14.5,   0.00,   0.01, 1001.6,    0.4, -999.0
18-09-2023, 00:37:59,    165,    0.0,   14.6,   0.00,   0.01, 1001.6,    0.3, -999.0
18-09-2023, 00:38:08,    166,    0.0,   14.5,   0.00,   0.01, 1001.6,    0.1, -999.0
18-09-2023, 00:38:19,    166,    0.0,   14.5,   0.00,   0.01, 1001.6,    0.1, -999.0
18-09-2023, 00:38:29,    166,    0.0,   14.5,   0.00,   0.02, 1001.5,    0.3, -999.0
18-09-2023, 00:38:38,    166,    0.0,   14.6,   0.00,   0.01, 1001.5,    0.3, -999.0
18-09-2023, 00:38:48,    166,    0.0,   14.5,   0.00,   0.02, 1001.5,    0.1, -999.0
18-09-2023, 00:38:59,    166,    0.0,   14.5,   0.00,   0.02, 1001.5,    0.1, -999.0
18-09-2023, 00:39:09,    166,    0.0,   14.5,   0.00,   0.01, 1001.5,    0.3, -999.0
18-09-2023, 00:39:18,    165,    0.0,   14.5,   0.00,   0.02, 1001.5,    0.1, -999.0
18-09-2023, 00:39:29,    165,    0.0,   14.5,   0.00,   0.02, 1001.4,    0.2, -999.0
18-09-2023, 00:39:39,    165,    0.0,   14.4,   0.00,   0.02, 1001.4,    0.2, -999.0
18-09-2023, 00:39:48,    166,    0.0,   14.5,   0.00,   0.02, 1001.4,    0.1, -999.0
18-09-2023, 00:39:58,    166,    0.0,   14.5,   0.00,   0.02, 1001.4,    0.3, -999.0
18-09-2023, 00:40:09,    165,    0.0,   14.5,   0.00,   0.02, 1001.4,    0.0, -999.0
18-09-2023, 00:40:18,    166,    0.0,   14.5,   0.00,   0.02, 1001.4,    0.2, -999.0
18-09-2023, 00:40:28,    166,    0.0,   14.4,   0.00,   0.01, 1001.4,    0.5, -999.0
18-09-2023, 00:40:38,    166,    0.0,   14.4,   0.00,   0.02, 1001.4,    0.3, -999.0
18-09-2023, 00:40:48,    166,    0.0,   14.4,   0.00,   0.02, 1001.4,    0.2, -999.0
18-09-2023, 00:40:58,    166,    0.0,   14.3,   0.00,   0.01, 1001.4,    0.4, -999.0
18-09-2023, 00:41:08,    166,    0.0,   14.3,   0.00,   0.03, 1001.4,    0.6, -999.0
18-09-2023, 00:41:18,    165,    0.0,   14.4,   0.00,   0.02, 1001.4,    0.2, -999.0
18-09-2023, 00:41:28,    166,    0.0,   14.4,   0.00,   0.01, 1001.4,    0.3, -999.0
18-09-2023, 00:41:38,    166,    0.0,   14.4,   0.00,   0.02, 1001.4,    0.2, -999.0
18-09-2023, 00:41:48,    166,    0.0,   14.4,   0.00,   0.01, 1001.4,    0.3, -999.0
18-09-2023, 00:41:58,    166,    0.0,   14.4,   0.00,   0.01, 1001.4,    0.3, -999.0
18-09-2023, 00:42:08,    165,    0.0,   14.4,   0.00,   0.01, 1001.4,    0.2, -999.0
18-09-2023, 00:42:18,    165,    0.0,   14.4,   0.00,   0.01, 1001.4,    0.0, -999.0
18-09-2023, 00:42:28,    165,    0.0,   14.3,   0.00,   0.01, 1001.4,    0.2, -999.0
18-09-2023, 00:42:38,    165,    0.0,   14.3,   0.00,   0.00, 1001.4,    0.2, -999.0
18-09-2023, 00:42:48,    165,    0.0,   14.3,   0.00,   0.01, 1001.4,    0.2, -999.0
18-09-2023, 00:42:58,    165,    0.0,   14.3,   0.00,   0.01, 1001.4,    0.0, -999.0
18-09-2023, 00:43:08,    165,    0.0,   14.2,   0.00,   0.01, 1001.4,    0.0, -999.0
18-09-2023, 00:43:18,    165,    0.0,   14.2,   0.00,   0.00, 1001.4,    0.3, -999.0
18-09-2023, 00:43:28,    166,    0.0,   14.1,   0.00,   0.01, 1001.4,    0.3, -999.0
18-09-2023, 00:43:38,    166,    0.0,   14.2,   0.00,   0.01, 1001.4,    0.3, -999.0
18-09-2023, 00:43:48,    166,    0.0,   14.2,   0.00,   0.00, 1001.4,    0.3, -999.0
18-09-2023, 00:43:57,    166,    0.0,   14.3,   0.00,   0.02, 1001.5,    0.2, -999.0
18-09-2023, 00:44:08,    166,    0.0,   14.2,   0.00,   0.01, 1001.4,    0.3, -999.0
18-09-2023, 00:44:18,    165,    0.0,   14.2,   0.00,   0.01, 1001.4,    0.2, -999.0
18-09-2023, 00:44:28,    166,    0.0,   14.1,   0.00,   0.01, 1001.4,    0.2, -999.0
18-09-2023, 00:44:38,    166,    0.2,   14.2,   0.00,   0.01, 1001.5,    0.3, -999.0
18-09-2023, 00:44:48,    166,    0.1,   14.2,   0.00,   0.00, 1001.5,    0.2, -999.0
18-09-2023, 00:44:58,    166,    0.0,   14.2,   0.00,   0.02, 1001.5,    0.1, -999.0
18-09-2023, 00:45:07,    166,    0.0,   14.3,   0.00,   0.00, 1001.5,    0.3, -999.0
18-09-2023, 00:45:18,    166,    0.0,   14.3,   0.00,   0.01, 1001.4,    0.2, -999.0
18-09-2023, 00:45:28,    165,    0.0,   14.3,   0.00,   0.01, 1001.4,    0.1, -999.0
18-09-2023, 00:45:37,    166,    0.0,   14.3,   0.00,   0.00, 1001.5,    0.3, -999.0
18-09-2023, 00:45:47,    166,    0.0,   14.3,   0.00,   0.01, 1001.4,    0.1, -999.0
18-09-2023, 00:45:58,    165,    0.0,   14.2,   0.00,   0.01, 1001.5,    0.2, -999.0
18-09-2023, 00:46:07,    166,    0.0,   14.2,   0.00,   0.01, 1001.4,    0.1, -999.0
18-09-2023, 00:46:17,    165,    0.0,   14.2,   0.00,   0.00, 1001.5,    0.0, -999.0
18-09-2023, 00:46:27,    165,    0.0,   14.2,   0.00,   0.01, 1001.5,    0.0, -999.0
18-09-2023, 00:46:38,    166,    0.0,   14.2,   0.00,   0.01, 1001.5,    0.4, -999.0
18-09-2023, 00:46:47,    166,    0.0,   14.1,   0.00,   0.00, 1001.5,    0.4, -999.0